Prague, Czech Republic

8:41 AM CEST on August 24, 2016 (GMT +0200)
Ruzyne

Weather History for LKPR - March, 2013

Change the Weather History Date:

Tuesday, March 5, 2013

  Actual Average Record
Temperature  
Mean Temperature 36 °F -  
Max Temperature 49 °F 48 °F 60 °F (1998)
Min Temperature 24 °F 31 °F 10 °F (2005)
Degree Days  
Heating Degree Days 28    
Moisture  
Dew Point 26 °F    
Average Humidity 71    
Maximum Humidity 86    
Minimum Humidity 42    
Precipitation  
Precipitation 0.00 in 0.04 in - ()
Sea Level Pressure  
Sea Level Pressure 29.99 in    
Wind  
Wind Speed 7 mph ()    
Max Wind Speed 15 mph    
Max Gust Speed -    
Visibility 12.0 miles    
Events      
Averages and records for this station are not official NWS values.
T = Trace of Precipitation, MM = Missing Value Source: Averaged Metar Reports

Daily Weather History Graph

Daily Weather History Graph

Search for Another Location

Airport or City:

Trip Planner

Search our weather history database for the weather conditions in past years. The results will help you decide how hot, cold, wet, or windy it might be!

Date:

Astronomy

Mar. 05, 2013 Rise Set
Actual Time 6:38 AM CET 5:51 PM CET
Civil Twilight 6:05 AM CET 6:24 PM CET
Nautical Twilight 5:28 AM CET 7:01 PM CET
Astronomical Twilight 4:50 AM CET 7:39 PM CET
Moon 1:59 AM CET (3/5) 10:46 AM CET (3/5)
Length of Visible Light 12h 18m
Length of Day
11h 13m
Last Quarter, 44% of the Moon is Illuminated
Mar 5
Last Quarter
Mar 11
New
Mar 19
First Quarter
Mar 27
Full
Apr 3
Last Quarter

Hourly Weather History & Observations

Time (CET) Temp. Windchill Dew Point Humidity Pressure Visibility Wind Dir Wind Speed Gust Speed Precip Events Conditions
12:00 AM 30.2 °F 24.3 °F 21.2 °F 69% 30.15 in - East 5.8 mph - N/A   Clear
12:30 AM 30.2 °F 25.4 °F 23.0 °F 75% 30.15 in - East 4.6 mph - N/A   Clear
1:00 AM 28.4 °F 22.2 °F 23.0 °F 80% 30.12 in - East 5.8 mph - N/A   Clear
1:30 AM 28.4 °F - 23.0 °F 80% 30.12 in - Variable 2.3 mph - N/A   Clear
2:00 AM 28.4 °F 24.6 °F 21.2 °F 74% 30.12 in - ESE 3.5 mph - N/A   Clear
2:30 AM 26.6 °F 18.2 °F 21.2 °F 80% 30.09 in - East 8.1 mph - N/A   Clear
3:00 AM 28.4 °F 20.4 °F 23.0 °F 80% 30.09 in - East 8.1 mph - N/A   Clear
3:30 AM 26.6 °F 16.2 °F 23.0 °F 86% 30.09 in - East 11.5 mph - N/A   Clear
4:00 AM 26.6 °F 17.5 °F 23.0 °F 86% 30.06 in - East 9.2 mph - N/A   Clear
4:30 AM 24.8 °F 14.6 °F 21.2 °F 86% 30.06 in - East 10.4 mph - N/A   Clear
5:00 AM 24.8 °F 14.6 °F 21.2 °F 86% 30.06 in - East 10.4 mph - N/A   Clear
5:30 AM 24.8 °F 15.3 °F 21.2 °F 86% 30.06 in - East 9.2 mph - N/A   Clear
6:00 AM 26.6 °F 14.7 °F 23.0 °F 86% 30.06 in - East 15.0 mph - N/A   Clear
6:30 AM 24.8 °F 13.4 °F 21.2 °F 86% 30.04 in - East 12.7 mph - N/A   Clear
7:00 AM 25 °F - 21 °F 79% 30.15 in 12 mi East 8.9 mph - -  
7:00 AM 24.8 °F 16.9 °F 21.2 °F 86% 30.06 in - East 6.9 mph - N/A   Clear
7:30 AM 28.4 °F 20.4 °F 24.8 °F 86% 30.04 in - East 8.1 mph - N/A   Clear
8:00 AM 30.2 °F 23.4 °F 24.8 °F 80% 30.04 in - East 6.9 mph - N/A   Clear
8:30 AM 32.0 °F 28.7 °F 26.6 °F 80% 30.04 in - East 3.5 mph - N/A   Clear
9:00 AM 33.8 °F 29.6 °F 26.6 °F 75% 30.04 in - East 4.6 mph - N/A   Clear
9:30 AM 35.6 °F 29.9 °F 28.4 °F 75% 30.04 in - ESE 6.9 mph - N/A   Clear
10:00 AM 37.4 °F 32.1 °F 28.4 °F 70% 30.04 in - East 6.9 mph - N/A   Clear
10:30 AM 37.4 °F 30.8 °F 26.6 °F 65% 30.04 in - ESE 9.2 mph - N/A   Clear
11:00 AM 37.4 °F 30.8 °F 26.6 °F 65% 30.01 in - ESE 9.2 mph - N/A   Clear
11:30 AM 39.2 °F 33.6 °F 28.4 °F 65% 30.01 in - ESE 8.1 mph - N/A   Clear
12:00 PM 41.0 °F 35.8 °F 28.4 °F 61% 30.01 in - ESE 8.1 mph - N/A   Clear
12:30 PM 42.8 °F 38.6 °F 30.2 °F 61% 29.98 in - SE 6.9 mph - N/A   Clear
1:00 PM 44 °F - 28 °F 42% 30.02 in 12 mi SSE 6.7 mph - -  
1:00 PM 44.6 °F 40.2 °F 30.2 °F 57% 29.98 in - SE 8.1 mph - N/A   Clear
1:30 PM 46.4 °F 43.5 °F 28.4 °F 50% 29.98 in - SSE 5.8 mph - N/A   Clear
2:00 PM 46.4 °F 42.4 °F 30.2 °F 53% 29.95 in - SE 8.1 mph - N/A   Clear
2:30 PM 48.2 °F - 30.2 °F 50% 29.95 in - SE 8.1 mph - N/A   Clear
3:00 PM 48.2 °F - 30.2 °F 50% 29.95 in - ESE 6.9 mph - N/A   Clear
3:30 PM 48.2 °F - 30.2 °F 50% 29.92 in - SE 8.1 mph - N/A   Clear
4:00 PM 48.2 °F - 28.4 °F 46% 29.92 in - SE 9.2 mph - N/A   Clear
4:30 PM 48.2 °F - 30.2 °F 50% 29.92 in - SE 10.4 mph - N/A   Clear
5:00 PM 46.4 °F 42.9 °F 30.2 °F 53% 29.92 in - SE 6.9 mph - N/A   Clear
5:30 PM 44.6 °F 40.7 °F 30.2 °F 57% 29.92 in - SE 6.9 mph - N/A   Clear
6:00 PM 42.8 °F 40.1 °F 30.2 °F 61% 29.92 in - ESE 4.6 mph - N/A   Clear
6:30 PM 37.4 °F 34.9 °F 28.4 °F 70% 29.89 in - East 3.5 mph - N/A   Clear
7:00 PM 36 °F - 29 °F 67% 29.96 in 12 mi ESE 8.9 mph - -  
7:00 PM 37.4 °F 32.8 °F 30.2 °F 75% 29.89 in - East 5.8 mph - N/A   Clear
7:30 PM 37.4 °F 33.8 °F 30.2 °F 75% 29.89 in - ESE 4.6 mph - N/A   Clear
8:00 PM 35.6 °F 31.7 °F 28.4 °F 75% 29.89 in - East 4.6 mph - N/A   Clear
8:30 PM 35.6 °F 30.7 °F 28.4 °F 75% 29.89 in - East 5.8 mph - N/A   Clear
9:00 PM 35.6 °F 30.7 °F 28.4 °F 75% 29.89 in - East 5.8 mph - N/A   Clear
9:30 PM 35.6 °F 29.9 °F 28.4 °F 75% 29.86 in - East 6.9 mph - N/A   Clear
10:00 PM 33.8 °F 27.0 °F 28.4 °F 81% 29.86 in - East 8.1 mph - N/A   Clear
10:30 PM 33.8 °F 27.0 °F 28.4 °F 81% 29.86 in - East 8.1 mph - N/A   Clear
11:00 PM 33.8 °F 27.0 °F 26.6 °F 75% 29.86 in - East 8.1 mph - N/A   Clear
11:30 PM 32.0 °F 25.6 °F 26.6 °F 80% 29.86 in - East 6.9 mph - N/A   Clear